ETD234 OMAA-RJTT

Flight info

Callsign ETD234
Flight time N/A
Altitude 35000
Route KANIP4K KANIP N318 GEVED N881 RASKI L639 BPL A791 ARIVO/N0500F370 A791 CEA B465 CTG A599 LINSO/K0915S1130 A599 SGM A581 LIN/K0896S1190 A581 WHA R343 PK W116 JTN G327 LAMEN/N0483F390 A593 SADLI Y590 BEDAR Y591 FUE Y23 KASTE Y81 ISEBI Y43 MENUR Y21 AKSEL AKSEL1B
Aircraft A35K/H-SDE2E3GHIJ3J4J5LM1ORWXY/LB1D1

Departure

Time 2026-05-01 14:45
Airport Zayed International Airport (OMAA)

Arrival

Time N/A
Airport Tokyo Haneda International Airport (RJTT)
Time Latitude Longitude Altitude Speed Heading
2026-05-01 14:27 24.42720 54.65026 64 ft 0 kts 122°
2026-05-01 14:35 24.42722 54.65022 64 ft 3 kts 122°
2026-05-01 14:35 24.42732 54.65006 55 ft 3 kts 122°
2026-05-01 14:35 24.42742 54.64989 55 ft 3 kts 122°
2026-05-01 14:36 24.42750 54.64970 55 ft 3 kts 93°
2026-05-01 14:36 24.42748 54.64949 59 ft 3 kts 58°
2026-05-01 14:36 24.42738 54.64936 55 ft 0 kts 35°
2026-05-01 14:38 24.42739 54.64936 55 ft 0 kts 36°
2026-05-01 14:39 24.42745 54.64941 64 ft 2 kts 36°
2026-05-01 14:39 24.42777 54.64969 57 ft 9 kts 38°
2026-05-01 14:39 24.42829 54.65013 56 ft 10 kts 37°
2026-05-01 14:39 24.42888 54.65061 57 ft 11 kts 37°
2026-05-01 14:40 24.42948 54.65119 57 ft 12 kts 56°
2026-05-01 14:40 24.42953 54.65206 55 ft 12 kts 110°
2026-05-01 14:40 24.42905 54.65280 55 ft 13 kts 127°
2026-05-01 14:40 24.42840 54.65373 59 ft 17 kts 128°
2026-05-01 14:41 24.42764 54.65480 56 ft 19 kts 128°
2026-05-01 14:41 24.42682 54.65595 54 ft 20 kts 128°
2026-05-01 14:41 24.42596 54.65717 54 ft 21 kts 128°
2026-05-01 14:41 24.42505 54.65845 56 ft 22 kts 128°
2026-05-01 14:42 24.42410 54.65978 55 ft 23 kts 128°
2026-05-01 14:42 24.42312 54.66116 55 ft 23 kts 128°
2026-05-01 14:42 24.42210 54.66259 53 ft 24 kts 128°
2026-05-01 14:42 24.42104 54.66409 52 ft 25 kts 128°
2026-05-01 14:43 24.42048 54.66489 52 ft 9 kts 122°
2026-05-01 14:43 24.42038 54.66561 53 ft 10 kts 77°
2026-05-01 14:43 24.42081 54.66624 53 ft 11 kts 38°
2026-05-01 14:43 24.42149 54.66676 51 ft 11 kts 22°
2026-05-01 14:44 24.42209 54.66652 51 ft 9 kts 323°
2026-05-01 14:44 24.42328 54.66491 52 ft 40 kts 308°
2026-05-01 14:44 24.42634 54.66066 56 ft 100 kts 308°
2026-05-01 14:45 24.43172 54.65315 57 ft 149 kts 308°
2026-05-01 14:45 24.44671 54.63199 785 ft 179 kts 309°
2026-05-01 14:45 24.45435 54.62119 1323 ft 185 kts 310°
2026-05-01 14:46 24.46284 54.60931 1589 ft 210 kts 310°
2026-05-01 14:46 24.48178 54.58266 2477 ft 226 kts 310°
2026-05-01 14:46 24.49154 54.56891 2933 ft 230 kts 310°
2026-05-01 14:47 24.50347 54.55649 3122 ft 245 kts 328°
2026-05-01 14:47 24.51975 54.55006 3341 ft 256 kts 356°
2026-05-01 14:47 24.53728 54.55451 3760 ft 263 kts 30°
2026-05-01 14:48 24.55292 54.58930 4721 ft 278 kts 93°
2026-05-01 14:48 24.54799 54.61032 5206 ft 284 kts 110°
2026-05-01 14:48 24.52870 54.64877 6140 ft 294 kts 122°
2026-05-01 14:49 24.50713 54.68721 7143 ft 299 kts 121°
2026-05-01 14:49 24.48682 54.72756 8142 ft 305 kts 118°
2026-05-01 14:50 24.47381 54.75542 8822 ft 309 kts 117°
2026-05-01 14:50 24.44794 54.81238 10157 ft 318 kts 117°
2026-05-01 14:51 24.43786 54.83452 10393 ft 331 kts 117°
2026-05-01 14:51 24.41620 54.88178 10819 ft 357 kts 118°
2026-05-01 14:52 24.39319 54.93174 11235 ft 381 kts 118°
2026-05-01 14:52 24.38107 54.95802 11434 ft 392 kts 118°
2026-05-01 14:52 24.35590 55.01259 11893 ft 408 kts 118°
2026-05-01 14:53 24.34284 55.04089 12218 ft 412 kts 118°
2026-05-01 14:53 24.33002 55.06867 12592 ft 415 kts 118°
2026-05-01 14:53 24.31679 55.09730 12991 ft 417 kts 118°
2026-05-01 14:53 24.30379 55.12544 13385 ft 419 kts 118°
2026-05-01 14:54 24.29058 55.15400 13748 ft 422 kts 118°
2026-05-01 14:54 24.27727 55.18275 14101 ft 424 kts 118°
2026-05-01 14:54 24.26390 55.21161 14425 ft 426 kts 119°
2026-05-01 14:54 24.25045 55.24062 14759 ft 429 kts 119°
2026-05-01 14:55 24.23690 55.26983 15107 ft 431 kts 119°
2026-05-01 14:55 24.22326 55.29923 15429 ft 434 kts 119°
2026-05-01 14:55 24.20954 55.32877 15757 ft 437 kts 119°
2026-05-01 14:55 24.19576 55.35844 16142 ft 436 kts 119°
2026-05-01 14:56 24.18197 55.38811 16559 ft 438 kts 120°
2026-05-01 14:56 24.16813 55.41786 16866 ft 441 kts 120°
2026-05-01 14:56 24.15414 55.44790 17165 ft 444 kts 120°
2026-05-01 14:56 24.14008 55.47807 17508 ft 446 kts 120°
2026-05-01 14:57 24.12579 55.50873 17834 ft 448 kts 120°
2026-05-01 14:57 24.09743 55.56949 18350 ft 454 kts 120°
2026-05-01 14:57 24.08283 55.60074 18617 ft 456 kts 120°
2026-05-01 14:58 24.06835 55.63173 18892 ft 458 kts 120°
2026-05-01 14:58 24.05402 55.66240 19159 ft 460 kts 120°
2026-05-01 14:58 24.03930 55.69359 19426 ft 462 kts 121°
2026-05-01 14:58 24.02443 55.72478 19683 ft 464 kts 121°
2026-05-01 14:59 24.00924 55.75651 19940 ft 466 kts 121°
2026-05-01 14:59 23.99417 55.78797 20225 ft 468 kts 121°
2026-05-01 14:59 23.97902 55.81961 20413 ft 473 kts 121°
2026-05-01 14:59 23.96372 55.85160 20650 ft 476 kts 121°
2026-05-01 15:00 23.93297 55.91592 21184 ft 479 kts 121°
2026-05-01 15:00 23.91770 55.94786 21459 ft 481 kts 121°
2026-05-01 15:00 23.90198 55.98071 21717 ft 483 kts 121°
2026-05-01 15:01 23.88638 56.01330 21969 ft 485 kts 122°
2026-05-01 15:01 23.87072 56.04604 22222 ft 487 kts 121°
2026-05-01 15:01 23.85500 56.07888 22507 ft 488 kts 122°
2026-05-01 15:01 23.83920 56.11183 22803 ft 490 kts 122°
2026-05-01 15:02 23.82337 56.14478 23006 ft 492 kts 122°
2026-05-01 15:02 23.81819 56.15556 23064 ft 493 kts 122°
2026-05-01 15:02 23.79137 56.21129 23455 ft 497 kts 122°
2026-05-01 15:02 23.77526 56.24477 23666 ft 498 kts 122°
2026-05-01 15:03 23.75913 56.27830 23862 ft 500 kts 122°
2026-05-01 15:03 23.74293 56.31196 24051 ft 502 kts 122°
2026-05-01 15:03 23.72660 56.34583 24166 ft 506 kts 122°
2026-05-01 15:03 23.71018 56.37990 24348 ft 507 kts 122°
2026-05-01 15:04 23.69372 56.41401 24515 ft 509 kts 122°
2026-05-01 15:04 23.67719 56.44826 24747 ft 510 kts 122°
2026-05-01 15:04 23.66068 56.48244 24959 ft 511 kts 122°
2026-05-01 15:04 23.64404 56.51682 25103 ft 513 kts 122°
2026-05-01 15:05 23.62737 56.55124 25271 ft 515 kts 122°
2026-05-01 15:05 23.61062 56.58581 25433 ft 517 kts 121°
2026-05-01 15:05 23.59381 56.62051 25642 ft 518 kts 121°
2026-05-01 15:05 23.57694 56.65529 25811 ft 519 kts 121°
2026-05-01 15:06 23.56001 56.69015 25987 ft 521 kts 121°
2026-05-01 15:06 23.54305 56.72507 26165 ft 522 kts 121°
2026-05-01 15:06 23.52625 56.75963 26356 ft 524 kts 121°
2026-05-01 15:06 23.50893 56.79523 26489 ft 526 kts 121°
2026-05-01 15:07 23.49175 56.83052 26686 ft 527 kts 121°
2026-05-01 15:07 23.47454 56.86584 26884 ft 529 kts 121°
2026-05-01 15:07 23.46312 56.88927 27002 ft 530 kts 121°
2026-05-01 15:07 23.44583 56.92474 27162 ft 532 kts 121°
2026-05-01 15:08 23.42845 56.96035 27334 ft 533 kts 121°
2026-05-01 15:08 23.41097 56.99614 27461 ft 535 kts 121°
2026-05-01 15:08 23.39348 57.03192 27665 ft 536 kts 121°
2026-05-01 15:08 23.37591 57.06782 27795 ft 538 kts 121°
2026-05-01 15:09 23.35859 57.10407 27954 ft 541 kts 120°
2026-05-01 15:09 23.32524 57.17793 28040 ft 548 kts 118°
2026-05-01 15:09 23.30869 57.21515 28407 ft 544 kts 118°
2026-05-01 15:10 23.29215 57.25222 28510 ft 546 kts 118°
2026-05-01 15:10 23.25867 57.32653 28857 ft 548 kts 119°
2026-05-01 15:10 23.24180 57.36372 28990 ft 550 kts 119°
2026-05-01 15:11 23.22482 57.40102 29127 ft 551 kts 119°
2026-05-01 15:11 23.19076 57.47572 29475 ft 551 kts 119°
2026-05-01 15:11 23.17374 57.51304 29625 ft 551 kts 119°
2026-05-01 15:12 23.15673 57.55029 29879 ft 550 kts 119°
2026-05-01 15:12 23.12276 57.62462 30323 ft 547 kts 119°
2026-05-01 15:12 23.10587 57.66154 30504 ft 546 kts 118°
2026-05-01 15:13 23.05549 57.77146 31241 ft 540 kts 118°
2026-05-01 15:14 23.02627 57.84652 31566 ft 543 kts 107°
2026-05-01 15:14 23.01941 57.88689 31738 ft 545 kts 96°
2026-05-01 15:14 23.01685 57.96906 32037 ft 546 kts 90°
2026-05-01 15:15 23.01736 58.05168 32367 ft 547 kts 90°
2026-05-01 15:15 23.01796 58.13403 32807 ft 545 kts 90°
2026-05-01 15:16 23.01811 58.21628 33212 ft 543 kts 90°
2026-05-01 15:16 23.01801 58.29785 33730 ft 540 kts 90°
2026-05-01 15:17 23.01782 58.37941 34072 ft 540 kts 90°
2026-05-01 15:18 23.02116 58.50094 34594 ft 539 kts 87°
2026-05-01 15:18 23.02288 58.54143 34783 ft 538 kts 87°
2026-05-01 15:19 23.02754 58.66422 34832 ft 544 kts 88°
2026-05-01 15:19 23.03154 58.78714 34832 ft 543 kts 88°
2026-05-01 15:20 23.03539 58.91003 34822 ft 543 kts 88°
2026-05-01 15:21 23.03792 58.99202 34828 ft 543 kts 88°
2026-05-01 15:21 23.04042 59.07400 34831 ft 543 kts 88°
2026-05-01 15:22 23.04398 59.19748 34829 ft 544 kts 88°
2026-05-01 15:22 23.04631 59.27948 34820 ft 544 kts 88°
2026-05-01 15:23 23.04861 59.36157 34822 ft 544 kts 88°
2026-05-01 15:23 23.05044 59.44380 34816 ft 545 kts 89°
2026-05-01 15:24 23.05157 59.52615 34810 ft 546 kts 89°
2026-05-01 15:24 23.05265 59.60852 34815 ft 545 kts 89°
2026-05-01 15:25 23.05380 59.69074 34813 ft 544 kts 89°
2026-05-01 15:25 23.05495 59.77223 34815 ft 543 kts 89°
2026-05-01 15:26 23.05608 59.85415 34818 ft 543 kts 89°
2026-05-01 15:26 23.05719 59.93600 34816 ft 542 kts 89°
2026-05-01 15:27 23.05822 60.01775 34819 ft 541 kts 89°
2026-05-01 15:28 23.05962 60.14015 34821 ft 541 kts 89°
2026-05-01 15:28 23.06053 60.22180 34821 ft 541 kts 89°
2026-05-01 15:29 23.06182 60.34439 34820 ft 541 kts 89°
2026-05-01 15:30 23.06340 60.50790 34823 ft 541 kts 89°
2026-05-01 15:31 23.06550 60.75240 34817 ft 541 kts 90°
2026-05-01 15:32 23.06666 60.91562 34817 ft 540 kts 90°
2026-05-01 15:34 23.06812 61.16003 34813 ft 538 kts 90°